Home   Weather   Hilo   Past weeks

Flag for USA Past Weather in Hilo, Hawaii, USA — Yesterday and Last 2 Weeks

80 °F

Scattered clouds.

Feels Like: 83 °F
Forecast: 70 / 82 °F
Wind: 5 mph from North

Location: Hilo International Airport

Current Time: Oct 24, 2016 at 12:06:41 PM

Latest Report: Oct 24, 2016 at 10:53 AM

Visibility: 10 mi

Pressure: 30.05 "Hg

Humidity: 67%

Dew Point: 68 °F

Location of HiloLocation

Past Weather in Hilo — Graph


Hilo Temperature Yesterday

Maximum temperature yesterday: 81 °F (at 9:53 AM)
Minimum temperature yesterday: 69 °F (at 11:53 PM)
Average temperature yesterday: 75 °F

High & Low Weather Summary for the Past Weeks

High83 °F (Oct 9, 10:53 AM)100% (Oct 17, 9:40 PM)30.13 "Hg (Oct 17, 9:40 PM)
Low66 °F (Oct 10, 4:53 AM)57% (Oct 10, 1:53 PM)29.91 "Hg (Oct 9, 3:53 PM)
Average76 °F81%30.03 "Hg
* Reported Oct 9 10:53 AM — Oct 24 10:53 AM, Hilo, Weather by CustomWeather, © 2016

Note: Actual official high and low records may vary slightly from our data, if they occured in-between our weather recording intervals... More about our weather records


Hilo Weather History for the Previous 24 Hours

Scroll right to see more
Time TempWeatherWind HumidityBarometerVisibility
10:53 AM
Mon, Oct 24
80 °FScattered clouds.5 mph67%30.05 "Hg10 mi
9:53 AM81 °FScattered clouds.10 mph62%30.06 "Hg10 mi
8:53 AM80 °FScattered clouds.3 mph62%30.06 "Hg10 mi
7:53 AM75 °FPartly sunny.5 mph71%30.05 "Hg10 mi
6:53 AM70 °FPartly sunny.7 mph76%30.04 "Hg10 mi
5:53 AM69 °FPassing clouds.No wind84%30.03 "Hg10 mi
4:53 AM69 °FLight rain. Mostly cloudy.10 mph81%30.02 "Hg10 mi
3:53 AM69 °FPassing clouds.6 mph76%30.01 "Hg10 mi
2:53 AM69 °FPartly cloudy.6 mph73%30.01 "Hg10 mi
1:53 AM69 °FPassing clouds.8 mph73%30.03 "Hg10 mi
12:53 AM69 °FPassing clouds.7 mph76%30.05 "Hg10 mi
11:53 PM
Sun, Oct 23
69 °FClear.3 mph79%30.06 "Hg10 mi
10:53 PM70 °FClear.7 mph81%30.06 "Hg10 mi
9:53 PM71 °FClear.No wind81%30.06 "Hg10 mi
8:53 PM73 °FPassing clouds.No wind81%30.06 "Hg10 mi
7:53 PM73 °FPassing clouds.6 mph84%30.05 "Hg10 mi
6:53 PM74 °FClear.No wind82%30.02 "Hg10 mi
5:53 PM77 °FPassing clouds.No wind71%30.01 "Hg10 mi
4:53 PM79 °FPassing clouds.5 mph67%29.99 "Hg10 mi
4:45 PM81 °FPassing clouds.5 mph62%30.00 "Hg10 mi
3:53 PM80 °FPassing clouds.7 mph62%29.98 "Hg10 mi
2:53 PM80 °FScattered clouds.8 mph64%29.97 "Hg10 mi
1:53 PM81 °FBroken clouds.10 mph62%29.98 "Hg10 mi
12:53 PM80 °FBroken clouds.7 mph64%29.99 "Hg10 mi
Weather by CustomWeather, © 2016

See weather overviewHow to use our weather pages